| time (UTC) | temp C | wind direction | speed KPH | gust KPH | rain 1hr cm | rain 24hr cm | rain mn cm | humidity % | barometer mb |
| 20260509031558 | 16 | 211 | 0.0 | 0.0 | 0.03 | 0.28 | 0.25 | 76 | 1012.5 |
| 20260509030038 | 16 | 211 | 0.0 | 0.0 | 0.03 | 0.28 | 0.25 | 75 | 1012.5 |
| 20260509024609 | 16 | 211 | 0.0 | 0.0 | 0.00 | 0.28 | 0.23 | 75 | 1012.4 |
| 20260509023044 | 16 | 211 | 0.0 | 0.0 | 0.00 | 0.28 | 0.23 | 73 | 1012.3 |
| 20260509021513 | 16 | 211 | 0.0 | 0.0 | 0.00 | 0.28 | 0.23 | 72 | 1012.3 |
| 20260509020149 | 16 | 211 | 0.0 | 0.0 | 0.00 | 0.28 | 0.23 | 72 | 1012.2 |
| 20260509014619 | 16 | 211 | 0.0 | 0.0 | 0.00 | 0.30 | 0.23 | 72 | 1012.3 |
| 20260509013010 | 17 | 211 | 0.0 | 0.0 | 0.00 | 0.30 | 0.23 | 71 | 1012.0 |
| 20260509011550 | 17 | 211 | 0.0 | 0.0 | 0.00 | 0.30 | 0.23 | 70 | 1012.0 |
| 20260509010018 | 17 | 211 | 0.0 | 0.0 | 0.00 | 0.30 | 0.23 | 69 | 1011.8 |
| 20260509004539 | 17 | 211 | 0.0 | 0.0 | 0.00 | 0.33 | 0.23 | 68 | 1011.8 |
| 20260509003001 | 18 | 211 | 0.0 | 0.0 | 0.03 | 0.33 | 0.23 | 66 | 1011.8 |
| 20260509001624 | 18 | 211 | 0.0 | 0.0 | 0.03 | 0.33 | 0.23 | 66 | 1011.8 |
| 20260509000058 | 18 | 211 | 0.0 | 0.0 | 0.03 | 0.33 | 0.23 | 64 | 1011.7 |
| 20260508234636 | 18 | 211 | 0.0 | 3.2 | 0.03 | 0.38 | 0.23 | 63 | 1011.6 |
| 20260508233047 | 18 | 211 | 0.0 | 3.2 | 0.03 | 0.38 | 0.23 | 62 | 1011.4 |
| 20260508231522 | 19 | 211 | 0.0 | 3.2 | 0.00 | 0.36 | 0.20 | 61 | 1011.6 |
| 20260508230055 | 19 | 211 | 0.0 | 3.2 | 0.00 | 0.36 | 0.20 | 61 | 1011.7 |
| 20260508224533 | 19 | 195 | 0.0 | 1.6 | 0.00 | 0.41 | 0.20 | 60 | 1011.5 |
| 20260508223009 | 20 | 205 | 0.0 | 3.2 | 0.00 | 0.41 | 0.20 | 57 | 1011.5 |
| 20260508221532 | 20 | 196 | 0.0 | 3.2 | 0.00 | 0.41 | 0.20 | 57 | 1011.4 |
| 20260508220002 | 20 | 196 | 0.0 | 1.6 | 0.00 | 0.41 | 0.20 | 56 | 1011.4 |
| 20260508214621 | 20 | 192 | 0.0 | 3.2 | 0.00 | 0.48 | 0.20 | 55 | 1011.4 |
| 20260508213153 | 20 | 251 | 0.0 | 3.2 | 0.00 | 0.48 | 0.20 | 54 | 1011.4 |
| 20260508211527 | 20 | 221 | 0.0 | 1.6 | 0.03 | 0.48 | 0.20 | 57 | 1011.4 |
| 20260508210104 | 20 | 220 | 0.0 | 3.2 | 0.03 | 0.48 | 0.20 | 53 | 1011.7 |
| 20260508204527 | 21 | 160 | 0.0 | 4.8 | 0.03 | 0.56 | 0.20 | 56 | 1011.4 |
| 20260508203002 | 21 | 306 | 0.0 | 3.2 | 0.03 | 0.56 | 0.20 | 52 | 1011.7 |
| 20260508201528 | 21 | 152 | 0.0 | 3.2 | 0.03 | 0.56 | 0.20 | 50 | 1011.9 |
| 20260508200126 | 21 | 215 | 0.0 | 3.2 | 0.00 | 0.53 | 0.18 | 51 | 1011.9 |
| 20260508194509 | 21 | 219 | 0.0 | 3.2 | 0.00 | 0.64 | 0.18 | 48 | 1012.4 |
| 20260508193105 | 21 | 199 | 0.0 | 3.2 | 0.03 | 0.64 | 0.18 | 51 | 1012.5 |
| 20260508191624 | 21 | 178 | 0.0 | 3.2 | 0.03 | 0.64 | 0.18 | 49 | 1012.7 |
| 20260508190115 | 21 | 181 | 0.0 | 3.2 | 0.03 | 0.64 | 0.18 | 48 | 1013.0 |
| 20260508184637 | 21 | 230 | 0.0 | 1.6 | 0.03 | 0.69 | 0.18 | 50 | 1013.1 |
| 20260508183102 | 21 | 229 | 0.0 | 3.2 | 0.00 | 0.66 | 0.15 | 49 | 1013.3 |
| 20260508181516 | 20 | 159 | 0.0 | 4.8 | 0.00 | 0.66 | 0.15 | 52 | 1013.6 |
| 20260508180015 | 20 | 246 | 0.0 | 6.4 | 0.00 | 0.66 | 0.15 | 51 | 1013.6 |
| 20260508174514 | 20 | 199 | 0.0 | 3.2 | 0.00 | 0.71 | 0.15 | 54 | 1013.9 |
| 20260508173011 | 19 | 298 | 0.0 | 3.2 | 0.00 | 0.71 | 0.15 | 52 | 1014.0 |
| 20260508171509 | 19 | 153 | 0.0 | 3.2 | 0.00 | 0.71 | 0.15 | 53 | 1014.4 |
| 20260508170158 | 19 | 198 | 0.0 | 3.2 | 0.00 | 0.71 | 0.15 | 54 | 1014.5 |
| 20260508164514 | 18 | 191 | 0.0 | 3.2 | 0.00 | 0.76 | 0.15 | 54 | 1014.8 |
| 20260508163016 | 18 | 238 | 0.0 | 6.4 | 0.00 | 0.76 | 0.15 | 54 | 1014.9 |
| 20260508161514 | 18 | 248 | 0.0 | 6.4 | 0.00 | 0.76 | 0.15 | 55 | 1015.2 |
| 20260508160007 | 17 | 223 | 0.0 | 3.2 | 0.00 | 0.76 | 0.15 | 56 | 1015.3 |
| 20260508154505 | 17 | 171 | 0.0 | 3.2 | 0.00 | 0.81 | 0.15 | 56 | 1015.4 |
| 20260508153012 | 17 | 219 | 0.0 | 4.8 | 0.00 | 0.81 | 0.15 | 56 | 1015.6 |
| 20260508151501 | 16 | 163 | 0.0 | 3.2 | 0.03 | 0.81 | 0.15 | 58 | 1015.7 |
| 20260508150112 | 16 | 163 | 0.0 | 3.2 | 0.03 | 0.81 | 0.15 | 59 | 1015.7 |
| 20260508144545 | 16 | 163 | 0.0 | 3.2 | 0.03 | 0.89 | 0.15 | 63 | 1015.7 |
| 20260508143036 | 15 | 163 | 0.0 | 3.2 | 0.03 | 0.89 | 0.15 | 65 | 1015.6 |
| 20260508141700 | 15 | 163 | 0.0 | 3.2 | 0.00 | 0.86 | 0.13 | 64 | 1015.6 |
| 20260508140011 | 14 | 225 | 0.0 | 3.2 | 0.00 | 0.86 | 0.13 | 68 | 1015.9 |
| 20260508134556 | 13 | 225 | 0.0 | 1.6 | 0.00 | 0.97 | 0.13 | 77 | 1016.0 |
| 20260508133016 | 13 | 224 | 0.0 | 3.2 | 0.00 | 0.97 | 0.13 | 80 | 1016.0 |
| 20260508131515 | 12 | 224 | 0.0 | 0.0 | 0.00 | 0.97 | 0.13 | 80 | 1016.1 |
| 20260508130014 | 12 | 224 | 0.0 | 0.0 | 0.03 | 0.97 | 0.13 | 81 | 1016.0 |
| 20260508124511 | 11 | 224 | 0.0 | 0.0 | 0.03 | 1.07 | 0.13 | 81 | 1015.5 |
| 20260508123019 | 11 | 250 | 0.0 | 1.6 | 0.03 | 1.07 | 0.13 | 82 | 1015.5 |
| 20260508121507 | 11 | 250 | 0.0 | 0.0 | 0.03 | 1.07 | 0.13 | 86 | 1015.4 |
| 20260508120004 | 10 | 250 | 0.0 | 0.0 | 0.00 | 1.04 | 0.10 | 87 | 1014.9 |
| 20260508114501 | 10 | 250 | 0.0 | 0.0 | 0.00 | 1.19 | 0.10 | 89 | 1014.8 |
| 20260508113105 | 10 | 250 | 0.0 | 0.0 | 0.00 | 1.19 | 0.10 | 89 | 1014.5 |
| 20260508111559 | 10 | 250 | 0.0 | 0.0 | 0.00 | 1.19 | 0.10 | 89 | 1014.3 |
| 20260508104551 | 10 | 250 | 0.0 | 0.0 | 0.00 | 1.32 | 0.10 | 87 | 1013.6 |
| 20260508103050 | 10 | 250 | 0.0 | 0.0 | 0.00 | 1.32 | 0.10 | 86 | 1013.3 |
| 20260508101546 | 10 | 250 | 0.0 | 0.0 | 0.03 | 1.32 | 0.10 | 86 | 1013.1 |
| 20260508100100 | 10 | 250 | 0.0 | 0.0 | 0.03 | 1.32 | 0.10 | 86 | 1012.8 |
| 20260508094544 | 10 | 250 | 0.0 | 3.2 | 0.03 | 1.45 | 0.10 | 86 | 1012.6 |
| 20260508093042 | 10 | 250 | 0.0 | 3.2 | 0.03 | 1.45 | 0.10 | 87 | 1012.5 |
| 20260508091602 | 10 | 250 | 0.0 | 3.2 | 0.00 | 1.42 | 0.08 | 87 | 1012.4 |
| 20260508090043 | 10 | 250 | 0.0 | 0.0 | 0.00 | 1.42 | 0.08 | 85 | 1012.2 |
| 20260508084536 | 11 | 250 | 0.0 | 0.0 | 0.03 | 1.60 | 0.08 | 84 | 1012.1 |
| 20260508083034 | 11 | 250 | 0.0 | 0.0 | 0.03 | 1.60 | 0.08 | 83 | 1012.0 |
| 20260508081540 | 11 | 250 | 0.0 | 0.0 | 0.03 | 1.60 | 0.08 | 83 | 1011.9 |
| 20260508080031 | 11 | 250 | 0.0 | 0.0 | 0.03 | 1.60 | 0.08 | 83 | 1011.9 |
| 20260508074534 | 11 | 250 | 0.0 | 0.0 | 0.00 | 1.75 | 0.05 | 83 | 1012.0 |
| 20260508073027 | 11 | 250 | 0.0 | 0.0 | 0.00 | 1.75 | 0.05 | 83 | 1012.0 |
| 20260508071533 | 11 | 250 | 0.0 | 0.0 | 0.00 | 1.75 | 0.05 | 83 | 1012.0 |
| 20260508070025 | 12 | 250 | 0.0 | 0.0 | 0.00 | 1.75 | 0.05 | 83 | 1011.9 |
| 20260508064528 | 12 | 250 | 0.0 | 0.0 | 0.00 | 1.96 | 0.05 | 83 | 1011.8 |
| 20260508063022 | 12 | 250 | 0.0 | 0.0 | 0.03 | 1.96 | 0.05 | 83 | 1011.7 |
| 20260508061521 | 12 | 250 | 0.0 | 0.0 | 0.03 | 1.96 | 0.05 | 83 | 1011.6 |
| 20260508060025 | 12 | 250 | 0.0 | 0.0 | 0.03 | 1.96 | 0.05 | 82 | 1011.7 |
| 20260508054542 | 13 | 250 | 0.0 | 0.0 | 0.03 | 2.29 | 0.05 | 80 | 1011.8 |
| 20260508053015 | 13 | 250 | 0.0 | 0.0 | 0.00 | 2.26 | 0.03 | 79 | 1011.8 |
| 20260508051512 | 13 | 250 | 0.0 | 0.0 | 0.03 | 2.26 | 0.03 | 77 | 1011.9 |
| 20260508050011 | 13 | 250 | 0.0 | 0.0 | 0.03 | 2.26 | 0.03 | 76 | 1011.7 |
| 20260508044510 | 13 | 250 | 0.0 | 0.0 | 0.03 | 2.54 | 0.03 | 73 | 1011.8 |
| 20260508043006 | 14 | 250 | 0.0 | 0.0 | 0.03 | 2.54 | 0.03 | 70 | 1011.5 |
| 20260508041505 | 14 | 250 | 0.0 | 0.0 | 0.00 | 2.51 | 0.00 | 68 | 1011.4 |
| 20260508034600 | 15 | 250 | 0.0 | 0.0 | 0.03 | 2.51 | 2.51 | 65 | 1011.2 |
| 20260508033057 | 15 | 250 | 0.0 | 0.0 | 0.03 | 2.51 | 2.51 | 64 | 1011.4 |